TimeCST,TemperatureF,Dew PointF,Humidity,Sea Level PressureIn,VisibilityMPH,Wind Direction,Wind SpeedMPH,Gust SpeedMPH,PrecipitationIn,Events,Conditions,WindDirDegrees,DateUTC
12:56 AM,30.9,23.0,72,29.99,5.0,ENE,9.2,-,N/A,,Haze,60,2013-02-26 06:56:00
1:56 AM,30.9,21.9,69,29.99,6.0,East,11.5,-,N/A,,Haze,80,2013-02-26 07:56:00
2:56 AM,30.9,21.9,69,29.94,6.0,ENE,10.4,-,N/A,,Haze,70,2013-02-26 08:56:00
3:56 AM,32.0,23.0,69,29.91,7.0,NE,11.5,-,N/A,,Clear,50,2013-02-26 09:56:00
4:56 AM,30.0,21.9,72,29.90,6.0,NNE,8.1,-,N/A,,Haze,30,2013-02-26 10:56:00
5:56 AM,30.9,21.9,69,29.90,7.0,ENE,8.1,-,N/A,,Clear,60,2013-02-26 11:56:00
6:56 AM,30.0,23.0,75,29.87,6.0,NE,11.5,18.4,N/A,,Haze,40,2013-02-26 12:56:00
7:56 AM,30.9,23.0,72,29.85,6.0,NE,9.2,-,N/A,,Haze,40,2013-02-26 13:56:00
8:56 AM,33.1,24.1,70,29.86,6.0,ENE,12.7,-,N/A,,Haze,60,2013-02-26 14:56:00
9:56 AM,33.1,24.1,70,29.83,7.0,ENE,17.3,24.2,N/A,,Mostly Cloudy,60,2013-02-26 15:56:00
10:56 AM,34.0,24.1,67,29.80,8.0,NE,18.4,26.5,N/A,,Mostly Cloudy,50,2013-02-26 16:56:00
11:56 AM,34.0,25.0,70,29.78,8.0,NNE,17.3,26.5,N/A,,Scattered Clouds,30,2013-02-26 17:56:00
12:56 PM,35.1,24.1,64,29.75,10.0,NE,12.7,26.5,N/A,,Partly Cloudy,40,2013-02-26 18:56:00
1:56 PM,36.0,24.1,62,29.73,9.0,NE,13.8,31.1,N/A,,Clear,50,2013-02-26 19:56:00
2:56 PM,36.0,24.1,62,29.71,10.0,NE,18.4,29.9,N/A,,Scattered Clouds,40,2013-02-26 20:56:00
3:56 PM,35.1,24.1,64,29.72,10.0,NNE,19.6,27.6,N/A,,Overcast,30,2013-02-26 21:56:00
4:56 PM,35.1,24.1,64,29.70,10.0,NE,17.3,32.2,N/A,,Overcast,40,2013-02-26 22:56:00
5:40 PM,33.8,24.8,70,29.70,10.0,NE,11.5,-,N/A,,Overcast,40,2013-02-26 23:40:00
5:56 PM,34.0,24.1,67,29.72,10.0,NE,19.6,27.6,N/A,,Overcast,50,2013-02-26 23:56:00
6:47 PM,33.8,26.6,75,29.72,1.8,NNE,23.0,33.4,0.00,Snow,Light Snow,30,2013-02-27 00:47:00
6:56 PM,33.1,26.1,75,29.73,1.5,NE,23.0,29.9,0.00,Snow,Light Snow,50,2013-02-27 00:56:00
7:03 PM,32.0,26.6,80,29.72,0.8,NE,21.9,29.9,0.00,Snow,Light Snow,40,2013-02-27 01:03:00
7:16 PM,32.0,28.4,87,29.73,0.5,NE,19.6,26.5,0.00,Fog-Snow,Snow,40,2013-02-27 01:16:00
7:41 PM,30.2,26.6,86,29.73,0.8,NE,12.7,23.0,0.01,Snow,Light Snow,40,2013-02-27 01:41:00
7:56 PM,30.9,27.0,85,29.74,1.0,NE,12.7,20.7,0.01,Snow,Light Snow,40,2013-02-27 01:56:00
8:14 PM,30.2,26.6,86,29.72,1.2,NNE,10.4,20.7,0.00,Snow,Light Snow,30,2013-02-27 02:14:00
8:56 PM,30.9,26.1,82,29.73,1.5,NNE,17.3,26.5,0.00,Snow,Light Snow,30,2013-02-27 02:56:00
9:56 PM,30.9,26.1,82,29.71,1.2,NNE,17.3,23.0,0.00,Snow,Light Snow,20,2013-02-27 03:56:00
10:56 PM,30.0,26.1,85,29.71,1.2,NNE,16.1,23.0,0.00,Snow,Light Snow,20,2013-02-27 04:56:00
11:56 PM,30.0,25.0,82,29.70,1.2,North,13.8,-,0.00,Snow,Light Snow,10,2013-02-27 05:56:00